Location: Johnson City
(36.3130°N, 82.3540°W)
Time: 06:56:22
(UTC-04:00)

ISS - Visible Passes

Search period start: 26 September 2017 00:00
Search period end: 06 October 2017 00:00
Orbit: 401 x 407 km, 51.6° (Epoch: 26 September)

Date Brightness Start Highest point End Pass type
(mag) Time Alt. Az. Time Alt. Az. Time Alt. Az.
26 Sep -2.7 20:35:16 10° WSW 20:38:23 43° NW 20:40:35 17° NNE visible
27 Sep -3.8 19:42:45 10° SW 19:46:00 89° SE 19:49:17 10° NE visible
27 Sep -1.0 21:21:08 10° WNW 21:22:53 14° NNW 21:23:22 13° NNW visible
28 Sep -1.4 20:27:44 10° W 20:30:16 20° NNW 20:32:49 10° NNE visible
30 Sep -0.9 20:20:56 10° NW 20:22:16 12° NNW 20:23:36 10° N visible
